Location: The Saddle
(36.8333°N, 80.3417°W)
Time: 03:44:40
(UTC-04:00)

Vanguard 3 - Pass Details

Date: 25 February 2024
Orbit: 510 x 3234 km, 33.3° (Epoch: 24 April)

Event Time Altitude Azimuth Distance (km) Brightness Sun altitude
Rises 20:16:57 0° 234° (SW) 6,574 12.4 -25.8°
Reaches altitude 10° 20:21:03 10° 232° (SW) 5,788 12.0 -26.6°
Maximum altitude 20:39:45 62° 157° (SSE) 3,483 10.0 -30.3°
Enters shadow 20:46:25 46° 103° (ESE) 3,789 9.9 -31.6°
